Angoon, AK

1:42 PM AKDT on August 18, 2019 (GMT -0800)
Angoon

Weather History for PAGN - May, 2019

Change the Weather History Date:

Saturday, May 18, 2019

  Actual Average (PASI) Record (PASI)
Temperature  
Mean Temperature 52 °F 48 °F  
Max Temperature 61 °F 53 °F 77 °F (1945)
Min Temperature 45 °F 43 °F 35 °F (1992)
Degree Days  
Heating Degree Days 12 17  
Month to date heating degree days 332  
Growing Degree Days 2 (Base 50)    
Moisture  
Dew Point 43 °F    
Average Humidity 71    
Maximum Humidity 97    
Minimum Humidity 46    
Precipitation  
Precipitation 0.00 in 0.15 in 0.86 in (1972)
Month to date precipitation 2.53  
Year to date precipitation 27.90  
Sea Level Pressure  
Sea Level Pressure 29.82 in    
Wind  
Wind Speed 3 mph (East)    
Max Wind Speed 9 mph    
Max Gust Speed -    
Visibility 10 miles    
Events      
T = Trace of Precipitation, MM = Missing Value Source: NWS Daily Summary

Daily Weather History Graph

Daily Weather History Graph

Search for Another Location

Airport or City:

Astronomy

May. 18, 2019 Rise Set
Actual Time 4:31 AM AKDT 9:19 PM AKDT
Civil Twilight 3:35 AM AKDT 10:15 PM AKDT
Nautical Twilight 1:53 AM AKDT 12:02 AM AKDT
Astronomical Twilight Sun does not set Sun does not set
Moon 9:11 PM AKDT 5:04 AM AKDT
Length of Visible Light 18h 40m
Length of Day
16h 48m
Full, 100% of the Moon is Illuminated
May 18
Full
May 18
Full
May 26
Last Quarter
Jun 3
New
Jun 9
First Quarter

Hourly Weather History & Observations

Time (AKDT) Temp. Windchill Dew Point Humidity Pressure Visibility Wind Dir Wind Speed Gust Speed Precip Events Conditions
12:56 AM 46.0 °F 44.8 °F 45.0 °F 96% 29.77 in 10.0 mi Variable 3.5 mph - N/A   Partly Cloudy
1:56 AM 45.0 °F - 44.1 °F 97% 29.78 in 10.0 mi Calm Calm - N/A   Overcast
2:56 AM 45.0 °F - 44.1 °F 97% 29.80 in 10.0 mi Calm Calm - N/A   Overcast
3:56 AM 45.0 °F - 44.1 °F 97% 29.81 in 10.0 mi Calm Calm - 0.00 in   Overcast
4:56 AM 46.9 °F - 43.0 °F 86% 29.81 in 10.0 mi ENE 6.9 mph - N/A   Overcast
5:56 AM 48.0 °F - 43.0 °F 83% 29.81 in 10.0 mi East 5.8 mph - N/A   Overcast
6:56 AM 50.0 °F - 43.0 °F 77% 29.81 in 10.0 mi East 8.1 mph - N/A   Overcast
7:56 AM 51.1 °F - 44.1 °F 77% 29.82 in 10.0 mi ENE 8.1 mph - N/A   Overcast
8:56 AM 55.0 °F - 43.0 °F 64% 29.83 in 10.0 mi East 3.5 mph - N/A   Mostly Cloudy
9:56 AM 55.9 °F - 39.9 °F 55% 29.83 in 10.0 mi SE 6.9 mph - N/A   Mostly Cloudy
10:56 AM 59.0 °F - 39.0 °F 48% 29.83 in 10.0 mi SE 9.2 mph - N/A   Clear
11:56 AM 60.1 °F - 39.0 °F 46% 29.83 in 10.0 mi SE 6.9 mph - N/A   Overcast
12:56 PM 55.9 °F - 42.1 °F 60% 29.84 in 10.0 mi Variable 3.5 mph - N/A   Overcast
1:56 PM 55.9 °F - 42.1 °F 60% 29.83 in 10.0 mi Calm Calm - N/A   Overcast
2:56 PM 55.9 °F - 41.0 °F 57% 29.83 in 10.0 mi NNW 5.8 mph - N/A   Mostly Cloudy
3:56 PM 57.9 °F - 41.0 °F 53% 29.83 in 10.0 mi Calm Calm - N/A   Overcast
4:56 PM 60.1 °F - 42.1 °F 51% 29.82 in 10.0 mi Calm Calm - N/A   Clear
5:56 PM 57.0 °F - 43.0 °F 59% 29.81 in 10.0 mi Calm Calm - N/A   Overcast
6:56 PM 60.1 °F - 41.0 °F 49% 29.82 in 10.0 mi Variable 3.5 mph - N/A   Overcast
7:56 PM 53.1 °F - 44.1 °F 71% 29.81 in 10.0 mi WSW 3.5 mph - N/A   Overcast
8:56 PM 53.1 °F - 44.1 °F 71% 29.81 in 10.0 mi Calm Calm - N/A   Partly Cloudy
9:56 PM 51.1 °F - 45.0 °F 80% 29.82 in 10.0 mi SE 3.5 mph - N/A   Overcast
10:56 PM 51.1 °F - 45.0 °F 80% 29.82 in 10.0 mi Calm Calm - 0.00 in   Mostly Cloudy
11:56 PM 48.0 °F - 46.0 °F 93% 29.81 in 10.0 mi Calm Calm - N/A   Overcast